TimeCST,TemperatureF,Dew PointF,Humidity,Sea Level PressureIn,VisibilityMPH,Wind Direction,Wind SpeedMPH,Gust SpeedMPH,PrecipitationIn,Events,Conditions,WindDirDegrees,DateUTC
5:00 AM,73,72,95,29.76,17,Calm,Calm,,,,Partly Cloudy,,2013-09-14 11:00:00
6:00 AM,-9999,-9999,N/A,29.74,6.2,Calm,Calm,-,N/A,,Scattered Clouds,0,2013-09-14 12:00:00
7:00 AM,77.0,73.4,89,29.77,6.2,Calm,Calm,-,N/A,,Scattered Clouds,0,2013-09-14 13:00:00
8:00 AM,80.6,75.2,84,29.80,6.2,Calm,Calm,-,N/A,,Scattered Clouds,0,2013-09-14 14:00:00
9:00 AM,83,76,73,29.81,12,ESE,4.6,,,,Scattered Clouds,120,2013-09-14 15:00:00
9:00 AM,84.2,75.2,74,29.83,6.2,Calm,Calm,-,N/A,,Scattered Clouds,0,2013-09-14 15:00:00
10:00 AM,86.0,75.2,70,29.80,6.2,Calm,Calm,-,N/A,,Scattered Clouds,0,2013-09-14 16:00:00
11:00 AM,87.8,75.2,66,29.80,6.2,Calm,Calm,-,N/A,,Scattered Clouds,0,2013-09-14 17:00:00
12:00 PM,87,76,63,29.78,12,South,11.5,,,,Partly Cloudy,180,2013-09-14 18:00:00
12:00 PM,87.8,77.0,70,29.77,6.2,SSE,9.2,-,N/A,,Scattered Clouds,160,2013-09-14 18:00:00
1:00 PM,87.8,77.0,70,29.74,6.2,WSW,6.9,-,N/A,,Scattered Clouds,240,2013-09-14 19:00:00
2:00 PM,-9999,-9999,N/A,29.74,6.2,Calm,Calm,-,N/A,,Scattered Clouds,0,2013-09-14 20:00:00
3:00 PM,86,74,59,29.73,5,South,9.2,,,Thunderstorm,Thunderstorm,180,2013-09-14 21:00:00
3:00 PM,-9999,-9999,N/A,29.74,6.2,Calm,Calm,-,N/A,,Scattered Clouds,0,2013-09-14 21:00:00
4:00 PM,78.8,77.0,94,29.71,-9999.0,Calm,Calm,-,N/A,Rain,Light Rain,0,2013-09-14 22:00:00
5:00 PM,77.0,75.2,94,29.74,6.2,Calm,Calm,-,N/A,,Mostly Cloudy,0,2013-09-14 23:00:00
6:00 PM,77,74,90,29.78,6,NE,4.6,,,,Overcast,40,2013-09-15 00:00:00
6:00 PM,77.0,75.2,94,29.77,6.2,Calm,Calm,-,N/A,,Mostly Cloudy,0,2013-09-15 00:00:00
8:00 PM,-9999,-9999,N/A,29.80,6.2,Calm,Calm,-,N/A,,Mostly Cloudy,0,2013-09-15 02:00:00
9:00 PM,-9999,-9999,N/A,29.80,6.2,Calm,Calm,-,N/A,,Mostly Cloudy,0,2013-09-15 03:00:00